K4YOU Weather Reports


time (UTC)temp
C
wind
direction
speed
KPH
gust
KPH
rain 1hr
cm
rain 24hr
cm
rain mn
cm
humidity
%
barometer
mb
20260507180038 11 113 1.6 6.4 0.25 3.58 3.58 98 1009.6
20260507174554 11 151 1.6 3.2 0.25 3.53 3.53 98 1010.3
20260507173037 11 130 0.0 4.8 0.20 3.45 3.45 98 1010.8
20260507171550 11 165 0.0 4.8 0.20 3.38 3.38 98 1010.7
20260507170035 11 154 0.0 4.8 0.30 3.33 3.33 97 1011.3
20260507164537 11 145 1.6 9.7 0.61 3.28 3.28 97 1011.0
20260507163033 11 250 0.0 4.8 1.07 3.25 3.25 97 1011.2
20260507161536 11 157 0.0 4.8 1.22 3.17 3.17 97 1011.1
20260507160048 12 164 0.0 6.4 1.30 3.02 3.02 97 1010.6
20260507154527 12 102 1.6 6.4 1.12 2.67 2.67 97 1010.7
20260507153027 13 195 1.6 11.3 0.71 2.16 2.16 97 1010.9
20260507151522 13 147 0.0 4.8 0.58 1.96 1.96 97 1010.9
20260507150021 13 170 0.0 6.4 0.33 1.70 1.70 97 1010.9
20260507144519 14 200 1.6 4.8 0.18 1.52 1.52 97 1010.8
20260507143014 14 190 0.0 4.8 0.15 1.42 1.42 97 1010.6
20260507141511 15 139 1.6 4.8 0.10 1.37 1.37 97 1010.5
20260507140026 15 127 0.0 4.8 0.18 1.37 1.37 98 1010.4
20260507134510 15 134 0.0 1.6 0.25 1.35 1.35 98 1010.2
20260507133009 15 306 0.0 4.8 0.25 1.30 1.30 98 1010.3
20260507131508 15 132 0.0 3.2 0.38 1.27 1.27 97 1010.3
20260507130006 15 132 0.0 1.6 0.61 1.19 1.19 97 1010.5
20260507124505 15 131 0.0 3.2 0.66 1.07 1.07 96 1010.7
20260507123001 16 153 1.6 6.4 0.71 1.04 1.04 95 1010.5
20260507121559 17 133 0.0 3.2 0.69 0.89 0.89 97 1010.3
20260507120055 18 114 0.0 1.6 0.46 0.61 0.61 98 1010.4
20260507114555 18 113 0.0 0.0 0.30 0.41 0.41 98 1010.1
20260507113126 18 113 0.0 0.0 0.25 0.33 0.33 98 1010.1
20260507111553 18 113 0.0 0.0 0.15 0.20 0.20 97 1010.0
20260507110052 18 113 0.0 3.2 0.13 0.15 0.15 97 1010.0
20260507104601 18 113 0.0 1.6 0.08 0.10 0.10 97 1009.9
20260507103050 18 165 0.0 3.2 0.05 0.08 0.08 96 1009.7
20260507101553 18 122 0.0 1.6 0.03 0.05 0.05 95 1009.4
20260507100146 18 97 0.0 3.2 0.00 0.03 0.03 94 1009.1
20260507094545 19 92 0.0 3.2 0.00 0.03 0.03 93 1009.2
20260507093043 19 110 0.0 3.2 0.00 0.03 0.03 92 1009.0
20260507091547 19 110 0.0 1.6 0.00 0.03 0.03 91 1008.9
20260507090041 19 109 0.0 3.2 0.00 0.03 0.03 91 1009.2
20260507084551 19 91 0.0 1.6 0.00 0.03 0.03 91 1009.3
20260507083038 20 102 0.0 4.8 0.00 0.03 0.03 89 1009.7
20260507081537 20 89 0.0 4.8 0.00 0.03 0.03 88 1009.8
20260507080037 20 92 0.0 4.8 0.00 0.03 0.03 87 1009.7
20260507074537 20 113 0.0 4.8 0.00 0.03 0.03 87 1010.0
20260507073036 20 93 0.0 4.8 0.03 0.03 0.03 88 1009.8
20260507071541 20 107 0.0 4.8 0.03 0.03 0.03 88 1010.0
20260507070039 20 107 0.0 3.2 0.03 0.03 0.03 88 1009.9
20260507064543 20 109 0.0 1.6 0.03 0.03 0.03 88 1009.5
20260507063033 19 109 0.0 1.6 0.00 0.00 0.00 89 1009.4
20260507061535 20 109 0.0 1.6 0.00 0.00 0.00 88 1010.1
20260507060036 20 109 0.0 1.6 0.00 0.00 0.00 87 1010.9
20260507054536 20 109 0.0 1.6 0.00 0.00 0.00 84 1010.9
20260507053022 21 108 0.0 3.2 0.00 0.00 0.00 82 1010.9
20260507051520 21 115 0.0 6.4 0.00 0.00 0.00 79 1010.9
20260507050039 21 127 0.0 3.2 0.00 0.00 0.00 77 1010.8
20260507044522 21 108 0.0 1.6 0.00 0.00 0.00 76 1010.6
20260507043015 21 161 0.0 1.6 0.00 0.00 0.00 76 1010.8
20260507041514 21 94 0.0 8.0 0.00 0.00 0.00 75 1010.9
20260507040014 21 99 0.0 3.2 0.00 0.00 0.00 75 1010.7
20260507034512 22 107 0.0 1.6 0.00 0.00 0.00 75 1010.3
20260507033016 21 107 0.0 3.2 0.00 0.00 0.00 76 1010.4
20260507031510 22 108 0.0 0.0 0.00 0.00 0.00 77 1010.5
20260507030010 22 108 0.0 1.6 0.00 0.00 0.00 75 1010.7
20260507024515 22 108 0.0 1.6 0.00 0.00 0.00 75 1010.7
20260507023009 22 108 0.0 1.6 0.00 0.00 0.00 75 1011.1
20260507021517 22 109 0.0 1.6 0.00 0.00 0.00 76 1011.0
20260507020010 22 108 0.0 1.6 0.00 0.00 0.00 75 1010.9
20260507014507 22 101 0.0 0.0 0.00 0.00 0.00 75 1011.2
20260507013009 22 101 0.0 0.0 0.00 0.00 0.00 74 1011.0
20260507011514 22 101 0.0 0.0 0.00 0.00 0.00 74 1011.0
20260507010010 23 101 0.0 0.0 0.00 0.00 0.00 72 1011.1
20260507004505 23 101 0.0 0.0 0.00 0.00 0.00 71 1011.0
20260507003005 23 101 0.0 0.0 0.00 0.00 0.00 70 1010.8
20260507001505 24 101 0.0 0.0 0.00 0.00 0.00 68 1010.6
20260507000004 24 101 0.0 1.6 0.00 0.00 0.00 67 1010.4
20260506234503 24 101 0.0 1.6 0.00 0.00 0.00 66 1010.3
20260506233003 25 91 0.0 1.6 0.00 0.00 0.00 66 1010.1
20260506231502 25 97 0.0 4.8 0.00 0.00 0.00 65 1010.1
20260506230002 25 128 0.0 1.6 0.00 0.00 0.00 64 1009.9
20260506224500 25 116 0.0 6.4 0.00 0.00 0.00 64 1009.8
20260506223102 26 125 1.6 4.8 0.00 0.00 0.00 63 1009.9
20260506221600 26 112 0.0 3.2 0.00 0.00 0.00 64 1009.9
20260506220101 26 97 0.0 3.2 0.00 0.00 0.00 65 1010.0
20260506214558 26 100 0.0 1.6 0.00 0.00 0.00 64 1009.9
20260506213057 26 128 0.0 3.2 0.00 0.00 0.00 65 1009.5
20260506211556 26 91 0.0 4.8 0.00 0.00 0.00 64 1009.7
20260506210054 26 101 3.2 8.0 0.00 0.00 0.00 64 1010.0
20260506204558 26 83 3.2 11.3 0.00 0.00 0.00 64 1010.2
20260506203050 26 76 1.6 11.3 0.00 0.00 0.00 64 1010.5
20260506201547 26 86 0.0 4.8 0.00 0.00 0.00 64 1010.8
20260506200105 26 89 3.2 8.0 0.00 0.00 0.00 64 1011.1
20260506194549 26 101 3.2 11.3 0.00 0.00 0.00 65 1011.4
20260506193040 26 101 0.0 4.8 0.00 0.00 0.00 68 1011.4
20260506191539 25 103 0.0 4.8 0.00 0.00 0.00 68 1011.5
20260506190038 25 113 0.0 4.8 0.00 0.00 0.00 69 1011.7
20260506184535 25 96 0.0 3.2 0.00 0.00 0.00 68 1011.9
20260506183033 25 88 3.2 9.7 0.00 0.00 0.00 66 1012.0
20260506181532 25 58 1.6 6.4 0.00 0.00 0.00 67 1012.3